KC5DAQ-26 Weather Reports


time (UTC)temp
C
wind
direction
speed
KPH
gust
KPH
rain 1hr
cm
rain 24hr
cm
rain mn
cm
humidity
%
barometer
mb
20260505140232 23 10 1.6 4.8 0.00 0.00 0.00 90 1012.5
20260505140132 23 10 1.6 4.8 0.00 0.00 0.00 90 1012.5
20260505130303 23 0 1.6 8.0 0.00 0.00 0.00 91 1012.0
20260505130203 23 261 1.6 8.0 0.00 0.00 0.00 91 1012.0
20260505124946 23 350 1.6 11.3 0.00 0.00 0.00 91 1012.2
20260505124845 23 350 3.2 11.3 0.00 0.00 0.00 91 1012.1
20260505124743 23 348 3.2 11.3 0.00 0.00 0.00 91 1012.2
20260505124643 23 341 1.6 11.3 0.00 0.00 0.00 91 1012.2
20260505124541 23 120 0.0 11.3 0.00 0.00 0.00 91 1012.2
20260505124439 23 120 1.6 11.3 0.00 0.00 0.00 91 1012.1
20260505124338 23 120 3.2 11.3 0.00 0.00 0.00 91 1012.1
20260505124236 23 116 3.2 11.3 0.00 0.00 0.00 91 1012.1
20260505124133 23 49 1.6 4.8 0.00 0.00 0.00 91 1012.2
20260505124031 23 49 1.6 4.8 0.00 0.00 0.00 91 1012.2
20260505123931 23 145 1.6 4.8 0.00 0.00 0.00 92 1012.2
20260505123831 23 147 1.6 4.8 0.00 0.00 0.00 92 1012.2
20260505123731 23 65 0.0 4.8 0.00 0.00 0.00 92 1012.3
20260505123633 23 47 0.0 4.8 0.00 0.00 0.00 92 1012.2
20260505123531 23 47 0.0 4.8 0.00 0.00 0.00 92 1012.2
20260505123431 23 47 1.6 4.8 0.00 0.00 0.00 92 1012.2
20260505123331 23 47 1.6 6.4 0.00 0.00 0.00 92 1012.2
20260505123231 22 47 1.6 6.4 0.00 0.00 0.00 92 1012.0
20260505123132 22 154 1.6 6.4 0.00 0.00 0.00 92 1012.0
20260505123032 22 221 1.6 6.4 0.00 0.00 0.00 92 1012.1
20260505122932 22 123 1.6 6.4 0.00 0.00 0.00 92 1012.1
20260505122831 22 118 0.0 6.4 0.00 0.00 0.00 92 1012.1
20260505122732 22 55 0.0 6.4 0.00 0.00 0.00 92 1012.2
20260505122634 22 52 1.6 6.4 0.00 0.00 0.00 92 1012.1
20260505122532 22 52 3.2 6.4 0.00 0.00 0.00 92 1012.2
20260505122432 22 51 3.2 6.4 0.00 0.00 0.00 92 1012.2
20260505122331 22 127 1.6 6.4 0.00 0.00 0.00 92 1012.2
20260505122232 22 127 0.0 6.4 0.00 0.00 0.00 92 1012.3
20260505122132 22 127 1.6 6.4 0.00 0.00 0.00 92 1012.1
20260505122032 22 127 3.2 6.4 0.00 0.00 0.00 92 1012.1
20260505121933 22 128 3.2 6.4 0.00 0.00 0.00 92 1012.1
20260505121832 22 31 1.6 6.4 0.00 0.00 0.00 92 1012.1
20260505121731 22 31 0.0 6.4 0.00 0.00 0.00 92 1012.0
20260505121631 22 31 1.6 6.4 0.00 0.00 0.00 92 1012.0
20260505121532 22 31 1.6 6.4 0.00 0.00 0.00 92 1011.9
20260505121433 22 31 1.6 6.4 0.00 0.00 0.00 92 1011.9
20260505121331 22 30 3.2 6.4 0.00 0.00 0.00 92 1011.9
20260505121233 22 30 3.2 6.4 0.00 0.00 0.00 92 1011.8
20260505121131 22 128 1.6 6.4 0.00 0.00 0.00 92 1011.8
20260505121030 22 130 1.6 6.4 0.00 0.00 0.00 92 1011.8
20260505120932 22 130 1.6 6.4 0.00 0.00 0.00 92 1011.7
20260505120832 22 259 1.6 6.4 0.00 0.00 0.00 92 1011.7
20260505120731 22 258 1.6 6.4 0.00 0.00 0.00 92 1011.7
20260505120632 22 259 1.6 6.4 0.00 0.00 0.00 92 1011.7
20260505120532 22 258 0.0 6.4 0.00 0.00 0.00 92 1011.7
20260505120432 22 247 1.6 6.4 0.00 0.00 0.00 92 1011.8
20260505120331 22 248 1.6 6.4 0.00 0.00 0.00 92 1011.7
20260505120229 22 250 1.6 6.4 0.00 0.00 0.00 92 1011.8
20260505120129 22 111 0.0 3.2 0.00 0.00 0.00 92 1011.7
20260505120026 22 111 1.6 3.2 0.00 0.00 0.00 92 1011.7
20260505115925 22 111 1.6 3.2 0.00 0.00 0.00 92 1011.7
20260505115825 22 123 1.6 3.2 0.00 0.00 0.00 92 1011.7
20260505115725 22 161 1.6 3.2 0.00 0.00 0.00 92 1011.6
20260505115625 22 124 0.0 3.2 0.00 0.00 0.00 92 1011.6
20260505115525 22 124 1.6 4.8 0.00 0.00 0.00 92 1011.6
20260505115424 22 124 1.6 4.8 0.00 0.00 0.00 92 1011.7
20260505115325 22 133 1.6 4.8 0.00 0.00 0.00 92 1011.6
20260505115225 22 87 1.6 4.8 0.00 0.00 0.00 92 1011.7
20260505115126 22 87 1.6 4.8 0.00 0.00 0.00 92 1011.8
20260505115026 22 89 1.6 4.8 0.00 0.00 0.00 92 1011.8
20260505114926 22 89 1.6 4.8 0.00 0.00 0.00 91 1011.8
20260505114825 22 89 1.6 4.8 0.00 0.00 0.00 91 1011.9
20260505114725 22 89 3.2 4.8 0.00 0.00 0.00 91 1011.9
20260505114624 22 89 3.2 4.8 0.00 0.00 0.00 91 1011.9
20260505114524 22 141 1.6 4.8 0.00 0.00 0.00 91 1012.0
20260505114424 22 209 0.0 4.8 0.00 0.00 0.00 91 1011.9
20260505114324 22 209 0.0 4.8 0.00 0.00 0.00 91 1012.0
20260505114226 22 209 1.6 4.8 0.00 0.00 0.00 91 1012.0
20260505114124 22 209 1.6 4.8 0.00 0.00 0.00 91 1012.1
20260505114026 22 209 1.6 4.8 0.00 0.00 0.00 91 1012.1
20260505113924 22 212 1.6 4.8 0.00 0.00 0.00 91 1012.1
20260505113824 22 212 1.6 4.8 0.00 0.00 0.00 91 1012.2
20260505113725 22 237 0.0 4.8 0.00 0.00 0.00 91 1012.1
20260505113624 22 237 0.0 4.8 0.00 0.00 0.00 91 1012.0
20260505113525 22 283 1.6 4.8 0.00 0.00 0.00 91 1012.1
20260505113424 22 282 1.6 4.8 0.00 0.00 0.00 91 1012.1
20260505113325 22 282 3.2 4.8 0.00 0.00 0.00 91 1012.1
20260505113224 22 97 1.6 4.8 0.00 0.00 0.00 91 1012.0
20260505113124 22 49 1.6 4.8 0.00 0.00 0.00 91 1012.0
20260505113025 22 16 3.2 6.4 0.00 0.00 0.00 91 1011.9
20260505112925 22 14 3.2 11.3 0.00 0.00 0.00 91 1011.9
20260505112824 22 157 3.2 11.3 0.00 0.00 0.00 91 1011.8
20260505112725 22 110 1.6 11.3 0.00 0.00 0.00 91 1011.8
20260505112627 22 110 1.6 11.3 0.00 0.00 0.00 91 1011.8
20260505112525 22 110 1.6 11.3 0.00 0.00 0.00 91 1011.7
20260505112426 22 14 1.6 11.3 0.00 0.00 0.00 91 1011.8
20260505112326 22 6 1.6 11.3 0.00 0.00 0.00 91 1011.9
20260505112224 22 6 3.2 11.3 0.00 0.00 0.00 91 1011.8
20260505112124 22 113 3.2 11.3 0.00 0.00 0.00 91 1011.9
20260505112024 22 213 3.2 11.3 0.00 0.00 0.00 91 1011.8
20260505111925 22 121 3.2 8.0 0.00 0.00 0.00 91 1011.8
20260505111824 22 231 3.2 11.3 0.00 0.00 0.00 91 1011.8
20260505111724 22 34 1.6 11.3 0.00 0.00 0.00 91 1011.7
20260505111625 22 38 3.2 11.3 0.00 0.00 0.00 91 1011.8
20260505111525 22 31 1.6 11.3 0.00 0.00 0.00 91 1011.7
20260505111424 22 314 3.2 11.3 0.00 0.00 0.00 91 1011.7
20260505111324 22 292 3.2 11.3 0.00 0.00 0.00 91 1011.7
20260505111223 22 144 1.6 11.3 0.00 0.00 0.00 91 1011.7
20260505111124 22 145 1.6 11.3 0.00 0.00 0.00 91 1011.7
20260505111023 22 145 3.2 11.3 0.00 0.00 0.00 91 1011.6
20260505110923 22 145 3.2 11.3 0.00 0.00 0.00 91 1011.6
20260505110824 22 82 1.6 9.7 0.00 0.00 0.00 91 1011.6
20260505110725 22 75 1.6 9.7 0.00 0.00 0.00 91 1011.6
20260505110625 22 137 1.6 9.7 0.00 0.00 0.00 91 1011.6
20260505110524 22 192 1.6 9.7 0.00 0.00 0.00 91 1011.7
20260505110424 22 192 1.6 9.7 0.00 0.00 0.00 91 1011.7
20260505110323 22 199 1.6 9.7 0.00 0.00 0.00 91 1011.7
20260505110226 22 203 3.2 9.7 0.00 0.00 0.00 91 1011.7
20260505110124 22 94 3.2 9.7 0.00 0.00 0.00 91 1011.7
20260505102205 22 121 1.6 6.4 0.00 0.00 0.00 91 1011.8
20260505102101 22 121 3.2 6.4 0.00 0.00 0.00 91 1011.8
20260505102006 22 166 3.2 6.4 0.00 0.00 0.00 91 1011.8
20260505101905 22 41 3.2 6.4 0.00 0.00 0.00 91 1011.7
20260505101803 22 130 1.6 6.4 0.00 0.00 0.00 91 1011.7
20260505101704 22 133 1.6 6.4 0.00 0.00 0.00 91 1011.8
20260505101602 22 133 3.2 6.4 0.00 0.00 0.00 91 1011.8
20260505101502 22 133 3.2 6.4 0.00 0.00 0.00 91 1011.9
20260505101405 22 186 1.6 4.8 0.00 0.00 0.00 91 1011.9
20260505101303 22 212 0.0 4.8 0.00 0.00 0.00 91 1011.9
20260505101202 22 212 1.6 4.8 0.00 0.00 0.00 91 1011.9
20260505101102 22 212 1.6 4.8 0.00 0.00 0.00 91 1011.8
20260505101004 22 212 1.6 4.8 0.00 0.00 0.00 91 1012.0
20260505100903 22 212 1.6 4.8 0.00 0.00 0.00 91 1011.9
20260505100802 22 210 1.6 4.8 0.00 0.00 0.00 91 1012.0
20260505100703 22 123 1.6 4.8 0.00 0.00 0.00 91 1011.9
20260505100558 22 190 1.6 4.8 0.00 0.00 0.00 91 1011.9
20260505100458 22 192 3.2 4.8 0.00 0.00 0.00 91 1011.9
20260505100355 22 213 3.2 6.4 0.00 0.00 0.00 91 1011.9
20260505100254 22 120 1.6 6.4 0.00 0.00 0.00 91 1011.9
20260505100154 22 118 1.6 6.4 0.00 0.00 0.00 91 1011.9
20260505100053 22 117 1.6 6.4 0.00 0.00 0.00 91 1011.9
20260505095950 22 118 1.6 6.4 0.00 0.00 0.00 91 1011.8
20260505095848 22 118 1.6 6.4 0.00 0.00 0.00 91 1011.9
20260505095746 22 99 1.6 6.4 0.00 0.00 0.00 91 1011.9
20260505095645 22 99 1.6 6.4 0.00 0.00 0.00 91 1011.9
20260505095543 22 94 3.2 6.4 0.00 0.00 0.00 91 1011.8
20260505095442 22 125 1.6 6.4 0.00 0.00 0.00 91 1011.8
20260505095340 22 13 0.0 4.8 0.00 0.00 0.00 91 1011.9
20260505095240 22 13 0.0 4.8 0.00 0.00 0.00 91 1011.8
20260505095138 22 13 1.6 4.8 0.00 0.00 0.00 91 1011.9
20260505095036 22 169 1.6 4.8 0.00 0.00 0.00 91 1011.9
20260505094934 22 138 1.6 3.2 0.00 0.00 0.00 91 1011.9
20260505094834 22 138 1.6 3.2 0.00 0.00 0.00 91 1011.8
20260505094730 22 138 0.0 4.8 0.00 0.00 0.00 91 1011.8
20260505094631 22 138 0.0 4.8 0.00 0.00 0.00 91 1011.9
20260505094532 22 138 1.6 4.8 0.00 0.00 0.00 91 1011.8
20260505094431 22 138 1.6 4.8 0.00 0.00 0.00 91 1011.9
20260505094332 22 151 1.6 4.8 0.00 0.00 0.00 91 1011.9
20260505094231 22 152 1.6 4.8 0.00 0.00 0.00 91 1011.9
20260505094132 22 152 1.6 4.8 0.00 0.00 0.00 91 1011.9
20260505094031 22 159 1.6 4.8 0.00 0.00 0.00 91 1011.9
20260505093932 22 164 1.6 4.8 0.00 0.00 0.00 91 1011.9
20260505093833 22 164 1.6 4.8 0.00 0.00 0.00 91 1011.9
20260505093731 22 38 1.6 4.8 0.00 0.00 0.00 91 1011.9
20260505093631 22 38 1.6 4.8 0.00 0.00 0.00 91 1011.9
20260505093533 22 125 1.6 4.8 0.00 0.00 0.00 91 1011.9
20260505093433 22 125 1.6 4.8 0.00 0.00 0.00 91 1011.9
20260505093328 22 125 1.6 4.8 0.00 0.00 0.00 91 1011.9
20260505093228 22 128 1.6 4.8 0.00 0.00 0.00 91 1011.9
20260505093128 22 121 1.6 4.8 0.00 0.00 0.00 91 1012.0
20260505093025 22 114 1.6 4.8 0.00 0.00 0.00 91 1011.9
20260505092921 22 185 0.0 4.8 0.00 0.00 0.00 91 1012.0
20260505092819 22 185 1.6 4.8 0.00 0.00 0.00 91 1011.9
20260505092720 22 185 1.6 4.8 0.00 0.00 0.00 91 1011.9
20260505092619 22 319 1.6 4.8 0.00 0.00 0.00 91 1012.0
20260505092520 22 309 1.6 3.2 0.00 0.00 0.00 91 1012.0
20260505092419 22 237 0.0 4.8 0.00 0.00 0.00 91 1012.0
20260505092319 22 269 0.0 4.8 0.00 0.00 0.00 91 1012.0
20260505092221 21 79 0.0 4.8 0.00 0.00 0.00 91 1012.1
20260505092120 21 79 0.0 4.8 0.00 0.00 0.00 91 1012.1
20260505092020 21 79 1.6 4.8 0.00 0.00 0.00 91 1012.0
20260505091919 21 58 0.0 4.8 0.00 0.00 0.00 91 1012.0
20260505091819 21 54 1.6 4.8 0.00 0.00 0.00 91 1012.0
20260505091720 21 54 1.6 4.8 0.00 0.00 0.00 91 1012.0
20260505091619 21 54 1.6 4.8 0.00 0.00 0.00 91 1012.0
20260505091522 21 54 1.6 4.8 0.00 0.00 0.00 91 1012.0
20260505091420 21 54 1.6 4.8 0.00 0.00 0.00 91 1012.0
20260505091320 21 54 3.2 4.8 0.00 0.00 0.00 91 1012.1
20260505091220 21 125 3.2 4.8 0.00 0.00 0.00 91 1012.0
20260505091120 21 125 1.6 4.8 0.00 0.00 0.00 91 1012.0
20260505091020 21 121 0.0 4.8 0.00 0.00 0.00 91 1012.1
20260505090920 21 121 0.0 4.8 0.00 0.00 0.00 91 1012.1
20260505090820 21 121 1.6 4.8 0.00 0.00 0.00 91 1012.1
20260505090719 21 121 1.6 4.8 0.00 0.00 0.00 91 1012.1
20260505090619 21 121 0.0 4.8 0.00 0.00 0.00 91 1012.1
20260505090519 21 123 1.6 4.8 0.00 0.00 0.00 91 1012.1
20260505090419 21 123 3.2 4.8 0.00 0.00 0.00 91 1012.1
20260505090320 21 123 0.0 3.2 0.00 0.00 0.00 91 1012.1
20260505090220 21 169 0.0 3.2 0.00 0.00 0.00 91 1012.1
20260505090120 21 169 0.0 3.2 0.00 0.00 0.00 91 1012.1
20260505090019 21 169 0.0 3.2 0.00 0.00 0.00 91 1012.2
20260505085920 21 169 0.0 3.2 0.00 0.00 0.00 91 1012.2
20260505085820 21 169 0.0 3.2 0.00 0.00 0.00 91 1012.2
20260505085712 21 169 0.0 3.2 0.00 0.00 0.00 91 1012.1
20260505085610 21 169 0.0 3.2 0.00 0.00 0.00 91 1012.1
20260505085505 21 169 1.6 3.2 0.00 0.00 0.00 91 1012.0
20260505085404 21 169 1.6 3.2 0.00 0.00 0.00 91 1012.1
20260505085304 21 171 1.6 3.2 0.00 0.00 0.00 91 1012.0
20260505085203 21 171 1.6 3.2 0.00 0.00 0.00 91 1012.1
20260505085103 21 171 1.6 4.8 0.00 0.00 0.00 91 1012.0
20260505085004 21 171 1.6 4.8 0.00 0.00 0.00 91 1012.0
20260505084902 21 171 1.6 4.8 0.00 0.00 0.00 91 1012.0
20260505084803 21 171 0.0 4.8 0.00 0.00 0.00 91 1012.0
20260505084703 21 171 0.0 4.8 0.00 0.00 0.00 91 1011.9
20260505084603 21 171 1.6 4.8 0.00 0.00 0.00 91 1012.0
20260505084502 21 171 1.6 4.8 0.00 0.00 0.00 91 1012.0
20260505084403 21 113 1.6 4.8 0.00 0.00 0.00 91 1012.0
20260505084302 21 113 1.6 4.8 0.00 0.00 0.00 91 1012.0
20260505084202 21 113 1.6 4.8 0.00 0.00 0.00 91 1012.0
20260505084102 21 114 1.6 4.8 0.00 0.00 0.00 91 1012.1
20260505084004 21 107 0.0 4.8 0.00 0.00 0.00 91 1012.1
20260505083903 21 107 0.0 4.8 0.00 0.00 0.00 91 1012.1
20260505083802 21 107 1.6 4.8 0.00 0.00 0.00 91 1012.1
20260505083704 21 135 1.6 4.8 0.00 0.00 0.00 91 1012.2
20260505083602 21 135 1.6 4.8 0.00 0.00 0.00 90 1012.3
20260505083502 21 116 0.0 1.6 0.00 0.00 0.00 90 1012.2
20260505083402 21 116 0.0 1.6 0.00 0.00 0.00 90 1012.2
20260505083302 21 37 0.0 1.6 0.00 0.00 0.00 90 1012.2
20260505083202 21 37 0.0 3.2 0.00 0.00 0.00 90 1012.2
20260505083103 21 37 0.0 3.2 0.00 0.00 0.00 90 1012.2
20260505083002 21 37 0.0 4.8 0.00 0.00 0.00 90 1012.3
20260505082901 21 314 0.0 4.8 0.00 0.00 0.00 90 1012.3
20260505082804 21 313 0.0 4.8 0.00 0.00 0.00 90 1012.3
20260505082703 21 313 0.0 4.8 0.00 0.00 0.00 90 1012.4
20260505082604 21 313 0.0 4.8 0.00 0.00 0.00 90 1012.4
20260505082502 21 313 0.0 4.8 0.00 0.00 0.00 90 1012.4
20260505082404 21 313 0.0 4.8 0.00 0.00 0.00 90 1012.4
20260505082304 21 313 0.0 4.8 0.00 0.00 0.00 90 1012.4
20260505082202 21 313 1.6 4.8 0.00 0.00 0.00 90 1012.4
20260505082103 21 313 1.6 6.4 0.00 0.00 0.00 90 1012.3
20260505082002 21 179 1.6 6.4 0.00 0.00 0.00 90 1012.3
20260505081903 21 193 1.6 6.4 0.00 0.00 0.00 90 1012.3
20260505081802 21 197 1.6 6.4 0.00 0.00 0.00 90 1012.4
20260505081703 21 197 1.6 6.4 0.00 0.00 0.00 90 1012.4
20260505081602 21 227 1.6 6.4 0.00 0.00 0.00 90 1012.4
20260505081502 21 227 1.6 6.4 0.00 0.00 0.00 90 1012.4
20260505081404 21 257 0.0 6.4 0.00 0.00 0.00 90 1012.5
20260505081304 21 259 1.6 6.4 0.00 0.00 0.00 90 1012.5
20260505081202 21 258 1.6 6.4 0.00 0.00 0.00 90 1012.5
20260505081102 21 272 1.6 6.4 0.00 0.00 0.00 90 1012.5
20260505081004 21 134 1.6 4.8 0.00 0.00 0.00 90 1012.4
20260505080902 21 134 1.6 4.8 0.00 0.00 0.00 90 1012.5
20260505080802 21 138 1.6 4.8 0.00 0.00 0.00 90 1012.5
20260505080702 21 138 1.6 4.8 0.00 0.00 0.00 90 1012.5
20260505080603 21 138 1.6 4.8 0.00 0.00 0.00 90 1012.4
20260505080505 21 137 1.6 4.8 0.00 0.00 0.00 90 1012.4
20260505080404 21 137 1.6 4.8 0.00 0.00 0.00 90 1012.4
20260505080303 21 138 1.6 4.8 0.00 0.00 0.00 90 1012.4
20260505080203 21 206 0.0 4.8 0.00 0.00 0.00 90 1012.4
20260505080103 21 206 1.6 4.8 0.00 0.00 0.00 90 1012.5
20260505080004 21 206 1.6 4.8 0.00 0.00 0.00 90 1012.5
20260505075903 21 199 1.6 4.8 0.00 0.00 0.00 90 1012.5
20260505075803 21 99 1.6 4.8 0.00 0.00 0.00 90 1012.4
20260505075704 21 99 1.6 4.8 0.00 0.00 0.00 90 1012.5
20260505075603 21 99 1.6 4.8 0.00 0.00 0.00 90 1012.5
20260505075500 21 103 1.6 4.8 0.00 0.00 0.00 90 1012.5
20260505075359 21 103 1.6 6.4 0.00 0.00 0.00 90 1012.5
20260505075258 21 87 1.6 6.4 0.00 0.00 0.00 90 1012.6
20260505075155 21 337 1.6 6.4 0.00 0.00 0.00 90 1012.6
20260505075054 21 337 1.6 6.4 0.00 0.00 0.00 90 1012.6
20260505074954 21 202 1.6 6.4 0.00 0.00 0.00 90 1012.6
20260505074852 21 202 1.6 6.4 0.00 0.00 0.00 89 1012.6
20260505074749 21 202 1.6 6.4 0.00 0.00 0.00 89 1012.6
20260505074648 21 127 1.6 6.4 0.00 0.00 0.00 89 1012.6
20260505074545 21 134 3.2 6.4 0.00 0.00 0.00 89 1012.6
20260505074446 21 134 3.2 9.7 0.00 0.00 0.00 89 1012.6
20260505074345 21 172 3.2 9.7 0.00 0.00 0.00 89 1012.5
20260505074242 21 164 1.6 9.7 0.00 0.00 0.00 89 1012.5
20260505074141 21 164 1.6 9.7 0.00 0.00 0.00 89 1012.4
20260505074039 21 166 1.6 9.7 0.00 0.00 0.00 89 1012.5
20260505073937 21 161 1.6 9.7 0.00 0.00 0.00 89 1012.5
20260505073837 21 144 1.6 9.7 0.00 0.00 0.00 89 1012.5
20260505073735 21 144 1.6 9.7 0.00 0.00 0.00 89 1012.6
20260505073633 21 144 3.2 9.7 0.00 0.00 0.00 89 1012.6
20260505073531 21 138 3.2 6.4 0.00 0.00 0.00 89 1012.5
20260505073431 21 120 1.6 4.8 0.00 0.00 0.00 89 1012.6
20260505073331 21 121 1.6 4.8 0.00 0.00 0.00 89 1012.6
20260505073234 21 121 1.6 4.8 0.00 0.00 0.00 89 1012.6
20260505073132 21 121 1.6 6.4 0.00 0.00 0.00 89 1012.6
20260505073032 21 121 1.6 6.4 0.00 0.00 0.00 89 1012.7
20260505072932 21 124 1.6 6.4 0.00 0.00 0.00 89 1012.7
20260505072833 21 127 1.6 6.4 0.00 0.00 0.00 89 1012.7
20260505072731 21 128 1.6 6.4 0.00 0.00 0.00 89 1012.7
20260505072630 21 131 1.6 6.4 0.00 0.00 0.00 89 1012.7
20260505072528 21 131 3.2 6.4 0.00 0.00 0.00 89 1012.8
20260505072427 21 133 1.6 6.4 0.00 0.00 0.00 89 1012.8
20260505072324 21 137 3.2 6.4 0.00 0.00 0.00 89 1012.8
20260505072223 21 144 4.8 6.4 0.00 0.00 0.00 89 1012.8
20260505072121 21 144 3.2 6.4 0.00 0.00 0.00 89 1012.8
20260505072020 21 248 1.6 6.4 0.00 0.00 0.00 89 1012.8
20260505071919 21 245 1.6 6.4 0.00 0.00 0.00 89 1012.8
20260505071818 21 244 1.6 6.4 0.00 0.00 0.00 89 1012.9
20260505071717 21 309 1.6 6.4 0.00 0.00 0.00 89 1012.8
20260505071617 21 140 1.6 6.4 0.00 0.00 0.00 89 1012.9
20260505071518 21 117 3.2 6.4 0.00 0.00 0.00 89 1012.9
20260505071416 21 117 3.2 6.4 0.00 0.00 0.00 89 1012.8
20260505071316 21 120 3.2 6.4 0.00 0.00 0.00 89 1012.8
20260505071216 21 123 3.2 8.0 0.00 0.00 0.00 89 1012.9
20260505071117 21 289 3.2 8.0 0.00 0.00 0.00 89 1012.8
20260505071018 21 93 1.6 8.0 0.00 0.00 0.00 89 1012.8
20260505070917 21 92 3.2 8.0 0.00 0.00 0.00 89 1012.8
20260505070817 21 111 3.2 8.0 0.00 0.00 0.00 89 1012.8
20260505070717 21 164 1.6 8.0 0.00 0.00 0.00 89 1012.9
20260505070616 21 155 1.6 8.0 0.00 0.00 0.00 89 1012.8
20260505070517 21 155 1.6 8.0 0.00 0.00 0.00 89 1012.8
20260505070416 21 159 3.2 8.0 0.00 0.00 0.00 89 1012.8
20260505070317 21 148 1.6 8.0 0.00 0.00 0.00 89 1012.8
20260505070217 21 269 1.6 6.4 0.00 0.00 0.00 89 1012.9
20260505070117 21 271 3.2 6.4 0.00 0.00 0.00 89 1012.9
20260505070017 21 28 1.6 4.8 0.00 0.00 0.00 89 1012.9
20260505065916 21 78 1.6 4.8 0.00 0.00 0.00 89 1012.9
20260505065817 21 45 1.6 4.8 0.00 0.00 0.00 89 1012.9
20260505065716 21 104 1.6 4.8 0.00 0.00 0.00 89 1012.8
20260505065616 21 6 1.6 4.8 0.00 0.00 0.00 89 1012.9
20260505065516 21 31 3.2 8.0 0.00 0.00 0.00 89 1012.9
20260505065418 21 31 3.2 8.0 0.00 0.00 0.00 88 1012.9
20260505065316 21 4 3.2 8.0 0.00 0.00 0.00 88 1012.9
20260505065216 21 172 1.6 8.0 0.00 0.00 0.00 88 1012.9
20260505065118 21 117 1.6 8.0 0.00 0.00 0.00 88 1012.9
20260505065017 21 118 1.6 8.0 0.00 0.00 0.00 88 1012.9
20260505064916 21 118 1.6 8.0 0.00 0.00 0.00 88 1013.0
20260505064816 21 118 1.6 8.0 0.00 0.00 0.00 88 1013.0
20260505064717 21 118 3.2 8.0 0.00 0.00 0.00 88 1013.0
20260505064617 21 118 3.2 8.0 0.00 0.00 0.00 88 1013.0
20260505064516 21 73 1.6 4.8 0.00 0.00 0.00 88 1013.1
20260505064418 21 78 1.6 4.8 0.00 0.00 0.00 88 1013.1
20260505064315 21 144 1.6 6.4 0.00 0.00 0.00 88 1013.1
20260505064216 21 144 1.6 6.4 0.00 0.00 0.00 88 1013.1
20260505064118 21 144 1.6 6.4 0.00 0.00 0.00 88 1013.1
20260505064017 21 144 0.0 6.4 0.00 0.00 0.00 88 1013.2
20260505063916 21 155 0.0 6.4 0.00 0.00 0.00 88 1013.2
20260505063816 21 155 1.6 6.4 0.00 0.00 0.00 88 1013.2
20260505063716 21 155 1.6 6.4 0.00 0.00 0.00 88 1013.2
20260505063616 21 157 1.6 6.4 0.00 0.00 0.00 88 1013.2
20260505063516 21 173 3.2 6.4 0.00 0.00 0.00 88 1013.1
20260505063416 21 257 4.8 6.4 0.00 0.00 0.00 88 1013.2
20260505063317 21 124 3.2 6.4 0.00 0.00 0.00 88 1013.2
20260505063215 21 351 1.6 4.8 0.00 0.00 0.00 88 1013.3
20260505063115 21 128 1.6 4.8 0.00 0.00 0.00 88 1013.4
20260505063017 21 158 3.2 4.8 0.00 0.00 0.00 88 1013.4
20260505062915 21 133 3.2 4.8 0.00 0.00 0.00 88 1013.3
20260505062816 21 220 1.6 4.8 0.00 0.00 0.00 88 1013.3
20260505062716 21 111 0.0 3.2 0.00 0.00 0.00 88 1013.3
20260505062618 21 111 0.0 4.8 0.00 0.00 0.00 88 1013.3
20260505062516 21 111 0.0 8.0 0.00 0.00 0.00 88 1013.3
20260505062415 21 113 0.0 8.0 0.00 0.00 0.00 88 1013.4
20260505062316 21 113 1.6 8.0 0.00 0.00 0.00 88 1013.3
20260505062216 21 111 1.6 8.0 0.00 0.00 0.00 88 1013.4
20260505062115 21 113 1.6 8.0 0.00 0.00 0.00 88 1013.4
20260505062015 21 96 0.0 8.0 0.00 0.00 0.00 88 1013.4
20260505061916 21 96 0.0 8.0 0.00 0.00 0.00 88 1013.5
20260505061815 21 96 1.6 8.0 0.00 0.00 0.00 88 1013.5
20260505061715 21 96 3.2 8.0 0.00 0.00 0.00 88 1013.5
20260505061616 21 124 3.2 8.0 0.00 0.00 0.00 88 1013.5
20260505061516 21 299 3.2 4.8 0.00 0.00 0.00 88 1013.5
20260505061416 21 303 1.6 4.8 0.00 0.00 0.00 88 1013.5
20260505061316 21 154 1.6 4.8 0.00 0.00 0.00 88 1013.6
20260505061216 21 161 1.6 4.8 0.00 0.00 0.00 88 1013.5
20260505061116 21 166 1.6 4.8 0.00 0.00 0.00 88 1013.6
20260505061016 21 183 1.6 4.8 0.00 0.00 0.00 88 1013.6
20260505060916 21 116 3.2 4.8 0.00 0.00 0.00 88 1013.6
20260505060815 21 118 1.6 4.8 0.00 0.00 0.00 87 1013.5
20260505060716 21 116 0.0 4.8 0.00 0.00 0.00 87 1013.5
20260505060616 21 118 1.6 4.8 0.00 0.00 0.00 87 1013.5
20260505060515 21 118 3.2 6.4 0.00 0.00 0.00 87 1013.6
20260505060414 21 38 1.6 6.4 0.00 0.00 0.00 88 1013.5
20260505060315 21 34 1.6 6.4 0.00 0.00 0.00 88 1013.5
20260505060217 21 30 1.6 6.4 0.00 0.00 0.00 88 1013.6
20260505060115 21 30 1.6 6.4 0.00 0.00 0.00 87 1013.5
20260505060016 21 171 1.6 8.0 0.00 0.00 0.00 87 1013.6
20260505055916 21 179 1.6 8.0 0.00 0.00 0.00 87 1013.7
20260505055816 21 62 1.6 8.0 0.00 0.00 0.00 88 1013.7
20260505055716 21 62 3.2 8.0 0.00 0.00 0.00 87 1013.6
20260505055617 21 149 3.2 8.0 0.00 0.00 0.00 87 1013.6
20260505055517 21 173 1.6 8.0 0.00 0.00 0.00 87 1013.6
20260505055416 21 130 1.6 8.0 0.00 0.00 0.00 87 1013.5
20260505055313 21 121 1.6 8.0 0.00 0.00 0.00 87 1013.5
20260505055215 21 87 1.6 8.0 0.00 0.00 0.00 87 1013.5
20260505055115 21 85 3.2 8.0 0.00 0.00 0.00 87 1013.5
20260505055015 21 107 3.2 8.0 0.00 0.00 0.00 87 1013.5
20260505054914 21 0 1.6 6.4 0.00 0.00 0.00 87 1013.6
20260505054816 21 0 3.2 6.4 0.00 0.00 0.00 87 1013.6
20260505054715 21 79 1.6 6.4 0.00 0.00 0.00 87 1013.7
20260505054614 21 333 1.6 6.4 0.00 0.00 0.00 87 1013.7
20260505054515 21 313 1.6 6.4 0.00 0.00 0.00 87 1013.6
20260505054415 21 114 1.6 6.4 0.00 0.00 0.00 87 1013.7
20260505054315 21 114 1.6 6.4 0.00 0.00 0.00 87 1013.8
20260505054215 21 120 1.6 6.4 0.00 0.00 0.00 87 1013.7
20260505054115 21 120 1.6 6.4 0.00 0.00 0.00 87 1013.7
20260505054015 21 123 3.2 6.4 0.00 0.00 0.00 87 1013.7
20260505053915 21 138 1.6 6.4 0.00 0.00 0.00 87 1013.6
20260505053816 21 109 0.0 4.8 0.00 0.00 0.00 87 1013.7
20260505053715 21 0 0.0 4.8 0.00 0.00 0.00 87 1013.8
20260505053615 21 0 1.6 4.8 0.00 0.00 0.00 87 1013.7
20260505053514 21 0 3.2 4.8 0.00 0.00 0.00 87 1013.8
20260505053417 21 314 1.6 4.8 0.00 0.00 0.00 87 1013.8
20260505053314 21 121 0.0 3.2 0.00 0.00 0.00 87 1013.9
20260505053214 21 121 1.6 8.0 0.00 0.00 0.00 87 1013.9
20260505053115 21 121 0.0 8.0 0.00 0.00 0.00 87 1013.9
20260505053015 21 121 1.6 8.0 0.00 0.00 0.00 87 1014.0
20260505052914 21 121 1.6 8.0 0.00 0.00 0.00 87 1014.0
20260505052815 21 121 1.6 8.0 0.00 0.00 0.00 87 1014.0
20260505052717 21 123 1.6 8.0 0.00 0.00 0.00 87 1013.8
20260505052614 21 123 1.6 8.0 0.00 0.00 0.00 87 1013.9
20260505052514 21 123 1.6 8.0 0.00 0.00 0.00 87 1013.9
20260505052415 21 240 3.2 8.0 0.00 0.00 0.00 87 1014.0
20260505052314 21 240 1.6 8.0 0.00 0.00 0.00 87 1013.9
20260505052215 21 154 0.0 4.8 0.00 0.00 0.00 87 1013.9
20260505052115 21 154 1.6 4.8 0.00 0.00 0.00 87 1013.9
20260505052016 21 154 3.2 4.8 0.00 0.00 0.00 87 1013.9
20260505051916 21 127 1.6 4.8 0.00 0.00 0.00 87 1014.0
20260505051816 21 128 1.6 4.8 0.00 0.00 0.00 87 1013.9
20260505051716 21 128 1.6 4.8 0.00 0.00 0.00 87 1013.8
20260505051614 21 128 1.6 4.8 0.00 0.00 0.00 87 1013.9
20260505051514 21 134 1.6 3.2 0.00 0.00 0.00 87 1013.9
20260505051414 21 134 1.6 3.2 0.00 0.00 0.00 87 1013.8
20260505051315 21 134 1.6 3.2 0.00 0.00 0.00 86 1013.9
20260505051216 21 147 1.6 3.2 0.00 0.00 0.00 86 1013.9
20260505051115 21 149 1.6 4.8 0.00 0.00 0.00 86 1014.0
20260505051015 21 152 1.6 4.8 0.00 0.00 0.00 86 1013.9
20260505050915 21 154 1.6 4.8 0.00 0.00 0.00 86 1013.9
20260505050813 21 155 1.6 4.8 0.00 0.00 0.00 86 1013.9
20260505050714 21 323 0.0 4.8 0.00 0.00 0.00 86 1013.8
20260505050613 21 323 0.0 4.8 0.00 0.00 0.00 86 1013.9
20260505050515 21 323 0.0 4.8 0.00 0.00 0.00 85 1013.8
20260505050414 21 321 0.0 4.8 0.00 0.00 0.00 85 1013.9
20260505050316 21 321 1.6 4.8 0.00 0.00 0.00 85 1013.8
20260505050213 21 321 3.2 4.8 0.00 0.00 0.00 85 1013.9
20260505050113 21 134 1.6 4.8 0.00 0.00 0.00 85 1014.0
20260505041702 22 140 1.6 6.4 0.00 0.00 0.00 83 1013.8
20260505041602 22 141 1.6 6.4 0.00 0.00 0.00 83 1013.8
20260505041503 22 141 3.2 6.4 0.00 0.00 0.00 83 1013.9
20260505041404 22 138 1.6 4.8 0.00 0.00 0.00 83 1013.9
20260505041302 22 140 1.6 4.8 0.00 0.00 0.00 83 1013.9
20260505041203 22 140 1.6 6.4 0.00 0.00 0.00 83 1014.0
20260505041103 22 144 1.6 6.4 0.00 0.00 0.00 83 1014.1
20260505041001 22 144 1.6 6.4 0.00 0.00 0.00 83 1014.2
20260505040903 22 162 1.6 6.4 0.00 0.00 0.00 83 1014.2
20260505040803 22 45 1.6 6.4 0.00 0.00 0.00 83 1014.2
20260505040703 22 54 1.6 6.4 0.00 0.00 0.00 83 1014.2
20260505040602 22 44 1.6 6.4 0.00 0.00 0.00 83 1014.3
20260505040503 22 44 1.6 6.4 0.00 0.00 0.00 82 1014.2
20260505040403 22 142 1.6 8.0 0.00 0.00 0.00 82 1014.3
20260505040302 22 144 3.2 8.0 0.00 0.00 0.00 82 1014.3
20260505040202 22 182 3.2 8.0 0.00 0.00 0.00 82 1014.2
20260505040103 22 104 3.2 8.0 0.00 0.00 0.00 82 1014.3
20260505040003 22 0 1.6 8.0 0.00 0.00 0.00 82 1014.1
20260505035901 22 0 3.2 8.0 0.00 0.00 0.00 82 1014.2
20260505035802 22 348 3.2 8.0 0.00 0.00 0.00 82 1014.2
20260505035703 22 104 1.6 8.0 0.00 0.00 0.00 82 1014.1
20260505035602 22 106 1.6 8.0 0.00 0.00 0.00 82 1014.2
20260505035502 22 106 3.2 8.0 0.00 0.00 0.00 82 1014.1
20260505035404 22 37 3.2 6.4 0.00 0.00 0.00 82 1014.1
20260505035304 22 103 3.2 6.4 0.00 0.00 0.00 82 1014.2
20260505035203 22 104 3.2 6.4 0.00 0.00 0.00 82 1014.1
20260505035103 22 27 3.2 6.4 0.00 0.00 0.00 82 1014.2
20260505035004 22 25 3.2 11.3 0.00 0.00 0.00 82 1014.3
20260505034904 22 238 1.6 11.3 0.00 0.00 0.00 82 1014.4
20260505034802 22 238 1.6 11.3 0.00 0.00 0.00 81 1014.4
20260505034703 22 124 3.2 11.3 0.00 0.00 0.00 81 1014.3
20260505034602 22 38 3.2 11.3 0.00 0.00 0.00 81 1014.4
20260505034503 22 71 1.6 11.3 0.00 0.00 0.00 81 1014.4
20260505034402 22 68 3.2 11.3 0.00 0.00 0.00 81 1014.5
20260505034303 22 66 3.2 11.3 0.00 0.00 0.00 81 1014.5
20260505034203 22 192 3.2 11.3 0.00 0.00 0.00 81 1014.3
20260505034103 22 109 3.2 11.3 0.00 0.00 0.00 81 1014.5
20260505034002 22 24 1.6 9.7 0.00 0.00 0.00 81 1014.5
20260505033901 22 24 3.2 9.7 0.00 0.00 0.00 81 1014.5
20260505033802 22 175 3.2 9.7 0.00 0.00 0.00 81 1014.5
20260505033700 22 166 3.2 9.7 0.00 0.00 0.00 81 1014.5
20260505033559 22 209 4.8 9.7 0.00 0.00 0.00 81 1014.5
20260505033457 22 351 3.2 9.7 0.00 0.00 0.00 81 1014.4
20260505033359 22 283 3.2 11.3 0.00 0.00 0.00 81 1014.3
20260505033259 22 307 3.2 11.3 0.00 0.00 0.00 81 1014.4
20260505033156 22 125 1.6 14.5 0.00 0.00 0.00 81 1014.4
20260505033054 22 125 4.8 14.5 0.00 0.00 0.00 81 1014.4
20260505032939 22 125 3.2 14.5 0.00 0.00 0.00 81 1014.3
20260505032837 23 80 1.6 14.5 0.00 0.00 0.00 81 1014.3
20260505032737 22 80 3.2 14.5 0.00 0.00 0.00 81 1014.3
20260505032634 23 55 3.2 14.5 0.00 0.00 0.00 81 1014.3
20260505032533 23 92 3.2 14.5 0.00 0.00 0.00 81 1014.3
20260505032431 22 14 4.8 14.5 0.00 0.00 0.00 81 1014.2
20260505032330 23 78 4.8 14.5 0.00 0.00 0.00 81 1014.2
20260505032233 22 111 3.2 11.3 0.00 0.00 0.00 81 1014.3
20260505032131 22 83 1.6 11.3 0.00 0.00 0.00 81 1014.2
20260505032033 22 127 3.2 11.3 0.00 0.00 0.00 81 1014.2
20260505031931 22 131 3.2 11.3 0.00 0.00 0.00 81 1014.3
20260505031832 22 109 4.8 11.3 0.00 0.00 0.00 81 1014.2
20260505031733 22 111 4.8 11.3 0.00 0.00 0.00 81 1014.2
20260505031630 22 120 4.8 11.3 0.00 0.00 0.00 81 1014.2
20260505031532 23 76 4.8 11.3 0.00 0.00 0.00 81 1014.2
20260505031431 22 330 4.8 11.3 0.00 0.00 0.00 81 1014.1
20260505031332 22 128 4.8 11.3 0.00 0.00 0.00 81 1014.3
20260505031233 22 85 3.2 11.3 0.00 0.00 0.00 81 1014.2
20260505031131 22 75 1.6 11.3 0.00 0.00 0.00 81 1014.2
20260505031031 22 61 3.2 11.3 0.00 0.00 0.00 81 1014.3
20260505030931 22 61 3.2 14.5 0.00 0.00 0.00 81 1014.3
20260505030831 22 25 1.6 14.5 0.00 0.00 0.00 81 1014.3
20260505030732 22 11 1.6 14.5 0.00 0.00 0.00 81 1014.3
20260505030631 22 10 1.6 14.5 0.00 0.00 0.00 81 1014.2
20260505030533 22 130 3.2 14.5 0.00 0.00 0.00 80 1014.1
20260505030432 22 130 3.2 14.5 0.00 0.00 0.00 80 1014.1
20260505030332 23 131 3.2 14.5 0.00 0.00 0.00 80 1014.1
20260505030231 22 89 3.2 14.5 0.00 0.00 0.00 80 1014.2
20260505030131 22 28 4.8 14.5 0.00 0.00 0.00 80 1014.2
20260505030032 22 148 3.2 14.5 0.00 0.00 0.00 81 1014.2
20260505025930 22 350 1.6 8.0 0.00 0.00 0.00 81 1014.3
20260505025832 22 0 3.2 8.0 0.00 0.00 0.00 81 1014.2
20260505025733 22 117 1.6 8.0 0.00 0.00 0.00 81 1014.2
20260505025621 22 121 1.6 8.0 0.00 0.00 0.00 81 1014.2
20260505025519 22 121 3.2 9.7 0.00 0.00 0.00 81 1014.2
20260505025418 22 140 3.2 9.7 0.00 0.00 0.00 81 1014.2
20260505025314 22 159 3.2 9.7 0.00 0.00 0.00 81 1014.2
20260505025213 22 172 1.6 9.7 0.00 0.00 0.00 81 1014.3
20260505025111 22 111 1.6 9.7 0.00 0.00 0.00 81 1014.4
20260505025011 22 130 3.2 9.7 0.00 0.00 0.00 81 1014.3
20260505024909 22 138 1.6 9.7 0.00 0.00 0.00 81 1014.4
20260505024810 22 137 1.6 9.7 0.00 0.00 0.00 81 1014.3
20260505024710 22 137 3.2 9.7 0.00 0.00 0.00 81 1014.4
20260505024609 22 137 3.2 9.7 0.00 0.00 0.00 81 1014.3
20260505024508 22 89 1.6 11.3 0.00 0.00 0.00 81 1014.3
20260505024408 22 86 3.2 11.3 0.00 0.00 0.00 81 1014.3
20260505024311 22 102 3.2 11.3 0.00 0.00 0.00 81 1014.3
20260505024209 22 89 1.6 11.3 0.00 0.00 0.00 81 1014.2
20260505024109 22 54 3.2 11.3 0.00 0.00 0.00 81 1014.3
20260505024008 22 158 1.6 11.3 0.00 0.00 0.00 81 1014.2
20260505023909 22 220 1.6 11.3 0.00 0.00 0.00 81 1014.3
20260505023809 22 106 3.2 11.3 0.00 0.00 0.00 81 1014.4
20260505023708 22 106 3.2 11.3 0.00 0.00 0.00 80 1014.4
20260505023609 22 106 3.2 11.3 0.00 0.00 0.00 80 1014.3
20260505023509 22 0 3.2 8.0 0.00 0.00 0.00 80 1014.3
20260505023408 22 23 3.2 8.0 0.00 0.00 0.00 80 1014.2
20260505023310 22 123 3.2 8.0 0.00 0.00 0.00 80 1014.2
20260505023208 22 113 3.2 8.0 0.00 0.00 0.00 80 1014.2
20260505023108 22 289 3.2 8.0 0.00 0.00 0.00 80 1014.2
20260505023008 22 117 3.2 8.0 0.00 0.00 0.00 80 1014.3
20260505022911 22 331 3.2 8.0 0.00 0.00 0.00 80 1014.2
20260505022809 22 324 4.8 8.0 0.00 0.00 0.00 80 1014.2
20260505022709 22 299 3.2 8.0 0.00 0.00 0.00 80 1014.1
20260505022610 23 149 1.6 6.4 0.00 0.00 0.00 80 1014.2
20260505022508 23 172 1.6 8.0 0.00 0.00 0.00 80 1014.2
20260505022409 23 172 3.2 8.0 0.00 0.00 0.00 80 1014.2
20260505022309 23 0 3.2 8.0 0.00 0.00 0.00 80 1014.1
20260505022210 23 0 3.2 8.0 0.00 0.00 0.00 80 1014.1
20260505022109 23 90 1.6 8.0 0.00 0.00 0.00 80 1014.1
20260505022008 23 90 3.2 8.0 0.00 0.00 0.00 80 1014.0
20260505021910 23 171 3.2 8.0 0.00 0.00 0.00 80 1014.1
20260505021808 23 313 3.2 8.0 0.00 0.00 0.00 80 1014.1
20260505021708 23 161 3.2 8.0 0.00 0.00 0.00 79 1014.1
20260505021608 23 162 4.8 8.0 0.00 0.00 0.00 79 1014.0
20260505021509 23 254 3.2 8.0 0.00 0.00 0.00 79 1014.1
20260505021409 23 82 3.2 9.7 0.00 0.00 0.00 79 1014.2
20260505021309 23 125 4.8 9.7 0.00 0.00 0.00 79 1014.2
20260505021209 23 97 3.2 9.7 0.00 0.00 0.00 79 1014.1
20260505021109 23 321 1.6 9.7 0.00 0.00 0.00 80 1014.2
20260505021010 23 288 3.2 11.3 0.00 0.00 0.00 79 1014.2
20260505020910 23 56 3.2 11.3 0.00 0.00 0.00 79 1014.2
20260505020809 23 147 3.2 16.1 0.00 0.00 0.00 79 1014.2
20260505020709 23 80 4.8 16.1 0.00 0.00 0.00 79 1014.1
20260505020608 23 131 4.8 16.1 0.00 0.00 0.00 79 1014.0
20260505020508 23 120 4.8 16.1 0.00 0.00 0.00 79 1014.0
20260505020408 23 327 3.2 16.1 0.00 0.00 0.00 79 1014.0
20260505020308 23 162 1.6 16.1 0.00 0.00 0.00 79 1014.1
20260505020207 23 314 3.2 16.1 0.00 0.00 0.00 79 1014.1
20260505020109 23 314 6.4 16.1 0.00 0.00 0.00 79 1014.1
20260505020009 23 204 6.4 16.1 0.00 0.00 0.00 79 1014.0
20260505015908 23 144 6.4 16.1 0.00 0.00 0.00 79 1014.0
20260505015808 23 179 3.2 14.5 0.00 0.00 0.00 79 1014.0
20260505015710 23 117 3.2 14.5 0.00 0.00 0.00 79 1014.1
20260505015608 23 0 4.8 14.5 0.00 0.00 0.00 79 1014.0
20260505015507 23 0 4.8 14.5 0.00 0.00 0.00 79 1014.1
20260505015409 23 319 3.2 11.3 0.00 0.00 0.00 79 1014.0
20260505015307 23 336 4.8 11.3 0.00 0.00 0.00 79 1014.0
20260505015208 23 175 4.8 11.3 0.00 0.00 0.00 79 1014.0
20260505015108 23 307 3.2 9.7 0.00 0.00 0.00 78 1014.0
20260505015010 23 133 3.2 9.7 0.00 0.00 0.00 78 1013.9
20260505014907 23 109 3.2 9.7 0.00 0.00 0.00 78 1014.0
20260505014810 23 155 3.2 9.7 0.00 0.00 0.00 78 1014.0
20260505014708 23 14 3.2 9.7 0.00 0.00 0.00 78 1014.0
20260505014607 23 124 4.8 9.7 0.00 0.00 0.00 78 1013.9
20260505014508 23 121 4.8 9.7 0.00 0.00 0.00 78 1014.0
20260505014408 23 123 4.8 9.7 0.00 0.00 0.00 78 1014.0
20260505014307 23 279 3.2 9.7 0.00 0.00 0.00 78 1013.9
20260505014209 23 116 3.2 9.7 0.00 0.00 0.00 78 1013.8
20260505014107 23 164 4.8 9.7 0.00 0.00 0.00 78 1013.8
20260505014008 23 128 3.2 9.7 0.00 0.00 0.00 78 1013.7
20260505013908 23 99 3.2 8.0 0.00 0.00 0.00 78 1013.8
20260505013808 23 99 3.2 8.0 0.00 0.00 0.00 78 1013.8
20260505013708 23 159 3.2 8.0 0.00 0.00 0.00 78 1013.7
20260505013607 23 103 3.2 8.0 0.00 0.00 0.00 78 1013.7
20260505013507 23 97 3.2 8.0 0.00 0.00 0.00 78 1013.7
20260505013408 23 92 3.2 6.4 0.00 0.00 0.00 78 1013.7
20260505013308 23 111 3.2 6.4 0.00 0.00 0.00 78 1013.7
20260505013209 23 185 3.2 8.0 0.00 0.00 0.00 78 1013.6
20260505013107 23 142 3.2 8.0 0.00 0.00 0.00 78 1013.6
20260505013009 23 135 3.2 8.0 0.00 0.00 0.00 78 1013.6
20260505012906 23 96 1.6 8.0 0.00 0.00 0.00 78 1013.6
20260505012804 23 110 1.6 9.7 0.00 0.00 0.00 78 1013.6
20260505012704 23 109 1.6 9.7 0.00 0.00 0.00 78 1013.6
20260505012603 23 109 1.6 9.7 0.00 0.00 0.00 78 1013.6
20260505012505 23 109 1.6 9.7 0.00 0.00 0.00 78 1013.7
20260505012403 23 128 3.2 9.7 0.00 0.00 0.00 78 1013.6
20260505012304 23 131 3.2 9.7 0.00 0.00 0.00 78 1013.7
20260505012203 23 140 3.2 9.7 0.00 0.00 0.00 78 1013.7
20260505012103 23 104 4.8 9.7 0.00 0.00 0.00 78 1013.7
20260505012004 23 227 4.8 9.7 0.00 0.00 0.00 78 1013.8
20260505011902 23 166 3.2 9.7 0.00 0.00 0.00 78 1013.7
20260505011802 23 149 3.2 6.4 0.00 0.00 0.00 78 1013.8
20260505011703 23 240 3.2 6.4 0.00 0.00 0.00 78 1013.8
20260505011603 23 38 1.6 6.4 0.00 0.00 0.00 78 1013.8
20260505011506 23 295 1.6 6.4 0.00 0.00 0.00 78 1013.9
20260505011403 23 295 1.6 6.4 0.00 0.00 0.00 78 1013.8
20260505011302 23 272 1.6 6.4 0.00 0.00 0.00 78 1013.7
20260505011201 23 142 1.6 6.4 0.00 0.00 0.00 78 1013.7
20260505011102 23 142 1.6 6.4 0.00 0.00 0.00 78 1013.7
20260505011004 23 151 3.2 6.4 0.00 0.00 0.00 78 1013.7
20260505010903 23 131 3.2 6.4 0.00 0.00 0.00 78 1013.7
20260505010803 23 31 1.6 4.8 0.00 0.00 0.00 78 1013.8
20260505010703 23 31 1.6 8.0 0.00 0.00 0.00 78 1013.7
20260505010603 23 31 1.6 8.0 0.00 0.00 0.00 78 1013.7
20260505010505 23 31 1.6 8.0 0.00 0.00 0.00 78 1013.7
20260505010402 23 31 3.2 8.0 0.00 0.00 0.00 78 1013.7
20260505010304 23 100 3.2 8.0 0.00 0.00 0.00 78 1013.7
20260505010203 23 13 1.6 8.0 0.00 0.00 0.00 78 1013.8
20260505010003 23 207 3.2 8.0 0.00 0.00 0.00 78 1013.7
20260505005902 23 224 3.2 8.0 0.00 0.00 0.00 78 1013.6
20260505005803 23 238 3.2 8.0 0.00 0.00 0.00 78 1013.7
20260505005703 23 180 3.2 8.0 0.00 0.00 0.00 77 1013.7
20260505005604 23 121 3.2 8.0 0.00 0.00 0.00 77 1013.6
20260505005502 23 161 3.2 8.0 0.00 0.00 0.00 77 1013.6
20260505005403 23 261 3.2 8.0 0.00 0.00 0.00 77 1013.6
20260505005235 23 128 3.2 8.0 0.00 0.00 0.00 77 1013.6
20260505005133 23 171 3.2 8.0 0.00 0.00 0.00 77 1013.5
20260505005031 23 125 4.8 8.0 0.00 0.00 0.00 77 1013.5
20260505004932 23 151 3.2 8.0 0.00 0.00 0.00 77 1013.6
20260505004831 23 193 3.2 8.0 0.00 0.00 0.00 77 1013.5
20260505004731 23 114 3.2 8.0 0.00 0.00 0.00 77 1013.5
20260505004632 23 116 3.2 8.0 0.00 0.00 0.00 77 1013.6
20260505004533 23 118 1.6 8.0 0.00 0.00 0.00 77 1013.6
20260505004432 23 117 3.2 8.0 0.00 0.00 0.00 76 1013.6
20260505004332 23 118 3.2 8.0 0.00 0.00 0.00 76 1013.5
20260505004230 23 45 3.2 4.8 0.00 0.00 0.00 77 1013.5
20260505004132 -17 0.0 4.8 0.00 0.00 0.00 1013.5
20260505004032 -17 0.0 4.8 0.00 0.00 0.00 1013.4
20260505003933 -17 0.0 8.0 0.00 0.00 0.00 1013.5
20260505003834 24 86 3.2 8.0 0.00 0.00 0.00 76 1013.5
20260505003733 24 86 3.2 8.0 0.00 0.00 0.00 76 1013.4
20260505003632 24 86 3.2 11.3 0.00 0.00 0.00 76 1013.5
20260505003533 24 86 3.2 11.3 0.00 0.00 0.00 76 1013.6
20260505003433 24 86 3.2 11.3 0.00 0.00 0.00 76 1013.6
20260505003332 24 86 3.2 16.1 0.00 0.00 0.00 76 1013.6
20260505003232 24 0 1.6 16.1 0.00 0.00 0.00 75 1013.5
20260505003132 24 0 1.6 16.1 0.00 0.00 0.00 75 1013.5
20260505003032 24 0 1.6 16.1 0.00 0.00 0.00 75 1013.5
20260505002931 24 125 1.6 16.1 0.00 0.00 0.00 75 1013.5
20260505002830 24 133 3.2 16.1 0.00 0.00 0.00 75 1013.5
20260505002733 24 133 3.2 16.1 0.00 0.00 0.00 75 1013.4
20260505002633 24 264 3.2 16.1 0.00 0.00 0.00 75 1013.4
20260505002530 24 345 4.8 16.1 0.00 0.00 0.00 75 1013.4
20260505002432 24 178 3.2 16.1 0.00 0.00 0.00 75 1013.4
20260505002331 24 0 1.6 8.0 0.00 0.00 0.00 75 1013.5
20260505002232 24 121 3.2 8.0 0.00 0.00 0.00 75 1013.5
20260505002132 24 138 3.2 9.7 0.00 0.00 0.00 75 1013.5
20260505002031 24 326 3.2 9.7 0.00 0.00 0.00 75 1013.6
20260505001931 24 113 3.2 14.5 0.00 0.00 0.00 75 1013.5
20260505001832 24 145 3.2 14.5 0.00 0.00 0.00 75 1013.5
20260505001732 24 0 3.2 14.5 0.00 0.00 0.00 75 1013.5
20260505001631 24 298 3.2 14.5 0.00 0.00 0.00 75 1013.6
20260505001531 24 164 3.2 14.5 0.00 0.00 0.00 75 1013.5
20260505001432 24 47 1.6 14.5 0.00 0.00 0.00 75 1013.6
20260505001332 24 178 3.2 14.5 0.00 0.00 0.00 75 1013.6
20260505001229 24 149 4.8 14.5 0.00 0.00 0.00 75 1013.7
20260505001128 24 72 4.8 14.5 0.00 0.00 0.00 75 1013.7
20260505001025 24 202 6.4 14.5 0.00 0.00 0.00 75 1013.7
20260505000925 24 124 6.4 11.3 0.00 0.00 0.00 75 1013.7
20260505000823 24 134 3.2 6.4 0.00 0.00 0.00 75 1013.7
20260505000721 24 0 3.2 6.4 0.00 0.00 0.00 75 1013.8
20260505000620 24 0 3.2 9.7 0.00 0.00 0.00 75 1013.7
20260505000519 24 3 3.2 9.7 0.00 0.00 0.00 75 1013.7
20260505000417 24 309 3.2 9.7 0.00 0.00 0.00 75 1013.7
20260505000316 24 248 3.2 9.7 0.00 0.00 0.00 75 1013.6
20260505000214 24 334 3.2 9.7 0.00 0.00 0.00 75 1013.6
20260505000112 24 157 4.8 9.7 0.00 0.00 0.00 75 1013.7
20260505000012 24 192 3.2 11.3 0.00 0.00 0.00 75 1013.6
20260504235911 24 357 3.2 11.3 0.00 0.00 0.00 75 1013.6
20260504235810 24 118 4.8 11.3 0.00 0.00 0.00 75 1013.7
20260504235710 24 157 3.2 11.3 0.00 0.00 0.00 75 1013.7
20260504235608 24 113 3.2 11.3 0.00 0.00 0.00 75 1013.7
20260504235509 24 0 3.2 11.3 0.00 0.00 0.00 75 1013.7
20260504235406 24 133 3.2 11.3 0.00 0.00 0.00 75 1013.6
20260504235304 24 140 3.2 11.3 0.00 0.00 0.00 74 1013.7
20260504235204 24 30 4.8 11.3 0.00 0.00 0.00 74 1013.7
20260504235102 24 106 3.2 11.3 0.00 0.00 0.00 74 1013.7
20260504235004 24 131 3.2 9.7 0.00 0.00 0.00 75 1013.8
20260504234904 24 85 3.2 9.7 0.00 0.00 0.00 75 1013.7
20260504234804 24 85 3.2 9.7 0.00 0.00 0.00 74 1013.7
20260504234703 25 82 4.8 9.7 0.00 0.00 0.00 74 1013.8
20260504234604 25 258 4.8 9.7 0.00 0.00 0.00 75 1013.7
20260504234504 24 140 1.6 9.7 0.00 0.00 0.00 75 1013.7
20260504234404 24 140 1.6 9.7 0.00 0.00 0.00 75 1013.7
20260504234303 25 7 3.2 9.7 0.00 0.00 0.00 75 1013.9
20260504234204 25 7 3.2 9.7 0.00 0.00 0.00 75 1013.8
20260504234103 25 7 3.2 9.7 0.00 0.00 0.00 75 1013.9
20260504234004 25 7 3.2 9.7 0.00 0.00 0.00 75 1013.8
20260504233902 24 0 3.2 9.7 0.00 0.00 0.00 75 1013.8
20260504233803 25 164 3.2 9.7 0.00 0.00 0.00 74 1013.8
20260504233704 25 289 1.6 9.7 0.00 0.00 0.00 74 1013.9
20260504233602 25 7 1.6 8.0 0.00 0.00 0.00 74 1013.9
20260504233503 25 87 3.2 16.1 0.00 0.00 0.00 74 1013.9
20260504233404 25 89 3.2 16.1 0.00 0.00 0.00 74 1013.9
20260504233302 25 90 3.2 16.1 0.00 0.00 0.00 74 1013.9
20260504233203 -17 128 6.4 16.1 0.00 0.00 0.00 1013.9
20260504233104 25 128 6.4 16.1 0.00 0.00 0.00 74 1013.9
20260504232932 25 128 6.4 16.1 0.00 0.00 0.00 74 1013.8
20260504232833 25 128 6.4 16.1 0.00 0.00 0.00 74 1013.8
20260504232732 25 128 6.4 16.1 0.00 0.00 0.00 74 1013.8
20260504232623 25 138 6.4 16.1 0.00 0.00 0.00 74 1013.9
20260504232522 25 100 3.2 9.7 0.00 0.00 0.00 74 1013.9
20260504232420 25 97 3.2 9.7 0.00 0.00 0.00 74 1013.9
20260504232321 25 59 3.2 9.7 0.00 0.00 0.00 74 1013.9
20260504232218 25 52 4.8 9.7 0.00 0.00 0.00 74 1014.0
20260504232110 25 25 4.8 9.7 0.00 0.00 0.00 73 1014.0
20260504232007 25 123 4.8 9.7 0.00 0.00 0.00 74 1014.1
20260504231906 25 127 4.8 9.7 0.00 0.00 0.00 73 1014.0
20260504231804 25 137 4.8 9.7 0.00 0.00 0.00 74 1014.1
20260504231703 25 65 4.8 9.7 0.00 0.00 0.00 74 1014.0
20260504231604 25 147 3.2 8.0 0.00 0.00 0.00 74 1013.9
20260504231502 25 109 3.2 8.0 0.00 0.00 0.00 74 1013.9
20260504231402 25 45 3.2 8.0 0.00 0.00 0.00 73 1013.9
20260504231304 25 124 3.2 8.0 0.00 0.00 0.00 73 1013.9
20260504231202 25 171 3.2 8.0 0.00 0.00 0.00 74 1013.9
20260504231102 25 68 3.2 8.0 0.00 0.00 0.00 74 1014.0
20260504231004 25 68 3.2 8.0 0.00 0.00 0.00 73 1014.0
20260504230903 25 0 3.2 9.7 0.00 0.00 0.00 74 1014.0
20260504230803 -17 0.0 9.7 0.00 0.00 0.00 1014.0
20260504230704 -17 0.0 9.7 0.00 0.00 0.00 1014.0
20260504230601 -17 0.0 9.7 0.00 0.00 0.00 1014.0
20260504230502 25 27 6.4 9.7 0.00 0.00 0.00 73 1014.0
20260504230401 25 27 6.4 9.7 0.00 0.00 0.00 73 1014.0
20260504230301 25 27 6.4 9.7 0.00 0.00 0.00 73 1014.0
20260504230202 25 27 6.4 9.7 0.00 0.00 0.00 73 1014.0
20260504230101 25 27 6.4 9.7 0.00 0.00 0.00 73 1014.0
20260504230001 25 11 8.0 9.7 0.00 0.00 0.00 73 1014.0
20260504225901 25 20 3.2 8.0 0.00 0.00 0.00 73 1014.0
20260504225801 25 20 3.2 8.0 0.00 0.00 0.00 73 1014.0
20260504225701 25 20 3.2 8.0 0.00 0.00 0.00 73 1014.0
20260504225600 25 99 3.2 8.0 0.00 0.00 0.00 73 1014.0
20260504225501 25 124 3.2 8.0 0.00 0.00 0.00 73 1014.1
20260504225400 25 125 3.2 8.0 0.00 0.00 0.00 72 1014.0
20260504225300 25 121 1.6 9.7 0.00 0.00 0.00 72 1014.1
20260504225201 25 121 1.6 9.7 0.00 0.00 0.00 72 1014.1
20260504225101 25 123 3.2 9.7 0.00 0.00 0.00 72 1014.2
20260504225000 25 110 3.2 9.7 0.00 0.00 0.00 72 1014.2
20260504224859 25 161 4.8 9.7 0.00 0.00 0.00 73 1014.2
20260504224801 25 124 3.2 9.7 0.00 0.00 0.00 73 1014.2
20260504224659 25 107 3.2 9.7 0.00 0.00 0.00 73 1014.3
20260504224558 25 180 3.2 9.7 0.00 0.00 0.00 73 1014.3
20260504224457 25 75 3.2 9.7 0.00 0.00 0.00 72 1014.2
20260504224356 25 75 4.8 9.7 0.00 0.00 0.00 72 1014.2
20260504224253 25 138 4.8 8.0 0.00 0.00 0.00 72 1014.3
20260504224151 25 20 3.2 11.3 0.00 0.00 0.00 72 1014.2
20260504224049 25 35 3.2 11.3 0.00 0.00 0.00 72 1014.3
20260504223948 25 34 3.2 11.3 0.00 0.00 0.00 72 1014.3
20260504223847 25 165 3.2 19.3 0.00 0.00 0.00 72 1014.2
20260504223740 25 144 4.8 19.3 0.00 0.00 0.00 72 1014.2
20260504223634 25 168 3.2 19.3 0.00 0.00 0.00 72 1014.3
20260504223532 25 296 4.8 19.3 0.00 0.00 0.00 72 1014.3
20260504223431 25 30 6.4 19.3 0.00 0.00 0.00 72 1014.3
20260504223331 25 118 4.8 19.3 0.00 0.00 0.00 72 1014.3
20260504223232 25 197 3.2 19.3 0.00 0.00 0.00 72 1014.4
20260504223134 25 252 3.2 19.3 0.00 0.00 0.00 71 1014.3
20260504223033 25 90 4.8 19.3 0.00 0.00 0.00 72 1014.4
20260504222931 25 166 6.4 19.3 0.00 0.00 0.00 70 1014.4
20260504222833 25 151 3.2 9.7 0.00 0.00 0.00 71 1014.5
20260504222732 26 258 3.2 8.0 0.00 0.00 0.00 71 1014.4
20260504222632 26 347 3.2 8.0 0.00 0.00 0.00 72 1014.4
20260504222532 26 176 3.2 8.0 0.00 0.00 0.00 72 1014.4
20260504222431 26 171 4.8 9.7 0.00 0.00 0.00 72 1014.4
20260504222331 26 147 3.2 9.7 0.00 0.00 0.00 71 1014.5
20260504222231 26 20 1.6 9.7 0.00 0.00 0.00 71 1014.5
20260504222132 26 137 1.6 9.7 0.00 0.00 0.00 71 1014.6
20260504222032 26 83 1.6 9.7 0.00 0.00 0.00 71 1014.6
20260504221934 26 86 3.2 9.7 0.00 0.00 0.00 71 1014.6
20260504221832 25 130 3.2 9.7 0.00 0.00 0.00 71 1014.5
20260504221733 25 54 3.2 9.7 0.00 0.00 0.00 70 1014.6
20260504221633 25 131 4.8 9.7 0.00 0.00 0.00 70 1014.6
20260504221530 25 206 4.8 9.7 0.00 0.00 0.00 70 1014.6
20260504221433 25 134 4.8 11.3 0.00 0.00 0.00 71 1014.5
20260504221332 26 178 3.2 11.3 0.00 0.00 0.00 71 1014.6
20260504221232 26 89 3.2 11.3 0.00 0.00 0.00 71 1014.6
20260504221133 26 89 4.8 11.3 0.00 0.00 0.00 70 1014.6
20260504221032 26 144 4.8 11.3 0.00 0.00 0.00 70 1014.6
20260504220932 26 155 4.8 11.3 0.00 0.00 0.00 70 1014.5
20260504220832 26 99 3.2 11.3 0.00 0.00 0.00 70 1014.6
20260504220732 26 47 3.2 11.3 0.00 0.00 0.00 70 1014.5
20260504220629 26 327 4.8 11.3 0.00 0.00 0.00 71 1014.6
20260504220529 26 173 3.2 11.3 0.00 0.00 0.00 69 1014.6
20260504220427 26 138 1.6 6.4 0.00 0.00 0.00 70 1014.6
20260504220326 26 145 1.6 6.4 0.00 0.00 0.00 69 1014.6
20260504220226 26 145 3.2 8.0 0.00 0.00 0.00 69 1014.6
20260504220122 26 245 3.2 8.0 0.00 0.00 0.00 69 1014.6
20260504220011 26 138 3.2 8.0 0.00 0.00 0.00 69 1014.5
20260504215909 26 138 3.2 8.0 0.00 0.00 0.00 70 1014.5
20260504215806 26 123 3.2 8.0 0.00 0.00 0.00 70 1014.5
20260504215708 26 124 3.2 8.0 0.00 0.00 0.00 70 1014.6
20260504215603 26 124 3.2 8.0 0.00 0.00 0.00 70 1014.6
20260504215505 26 166 4.8 8.0 0.00 0.00 0.00 70 1014.6
20260504215404 26 196 3.2 8.0 0.00 0.00 0.00 70 1014.6
20260504215304 26 137 3.2 9.7 0.00 0.00 0.00 70 1014.6
20260504215203 26 192 3.2 9.7 0.00 0.00 0.00 69 1014.6
20260504215103 26 103 1.6 9.7 0.00 0.00 0.00 69 1014.6
20260504215004 26 164 3.2 9.7 0.00 0.00 0.00 69 1014.6
20260504214903 26 120 3.2 9.7 0.00 0.00 0.00 68 1014.7
20260504214802 26 27 3.2 9.7 0.00 0.00 0.00 67 1014.7
20260504214703 26 118 3.2 9.7 0.00 0.00 0.00 68 1014.6
20260504214601 26 162 3.2 9.7 0.00 0.00 0.00 68 1014.6
20260504214503 26 135 3.2 9.7 0.00 0.00 0.00 67 1014.6
20260504214404 26 135 3.2 9.7 0.00 0.00 0.00 66 1014.6
20260504214302 26 124 3.2 9.7 0.00 0.00 0.00 65 1014.6
20260504214203 26 152 3.2 9.7 0.00 0.00 0.00 67 1014.6
20260504214104 26 182 3.2 8.0 0.00 0.00 0.00 66 1014.5
20260504214003 26 85 1.6 8.0 0.00 0.00 0.00 67 1014.7
20260504213902 26 135 3.2 8.0 0.00 0.00 0.00 67 1014.6
20260504213801 26 128 3.2 8.0 0.00 0.00 0.00 66 1014.7
20260504213703 26 128 3.2 8.0 0.00 0.00 0.00 66 1014.6
20260504213602 26 120 1.6 8.0 0.00 0.00 0.00 70 1014.7
20260504213503 26 121 1.6 8.0 0.00 0.00 0.00 68 1014.8
20260504213402 26 83 1.6 8.0 0.00 0.00 0.00 67 1014.9
20260504213303 26 83 1.6 8.0 0.00 0.00 0.00 67 1014.9
20260504213203 26 83 3.2 8.0 0.00 0.00 0.00 66 1014.8
20260504213101 26 109 3.2 8.0 0.00 0.00 0.00 66 1014.8
20260504213002 26 100 3.2 8.0 0.00 0.00 0.00 65 1014.7
20260504212902 26 100 3.2 8.0 0.00 0.00 0.00 65 1014.8
20260504212802 26 48 3.2 8.0 0.00 0.00 0.00 65 1014.8
20260504212704 26 199 1.6 6.4 0.00 0.00 0.00 65 1014.8
20260504212602 26 125 3.2 6.4 0.00 0.00 0.00 67 1014.9
20260504212503 26 148 3.2 6.4 0.00 0.00 0.00 65 1014.8
20260504212403 26 104 3.2 6.4 0.00 0.00 0.00 66 1014.8
20260504212303 26 137 3.2 6.4 0.00 0.00 0.00 66 1014.8
20260504212202 26 68 3.2 6.4 0.00 0.00 0.00 65 1014.8
20260504212104 27 21 3.2 6.4 0.00 0.00 0.00 63 1014.9
20260504212003 27 31 3.2 9.7 0.00 0.00 0.00 65 1014.9
20260504211901 27 142 3.2 9.7 0.00 0.00 0.00 65 1015.0
20260504211800 27 73 3.2 9.7 0.00 0.00 0.00 63 1015.0
20260504211658 27 155 3.2 9.7 0.00 0.00 0.00 66 1015.0
20260504211557 27 159 3.2 17.7 0.00 0.00 0.00 65 1015.0
20260504211457 27 154 3.2 17.7 0.00 0.00 0.00 65 1015.1
20260504211359 27 251 1.6 17.7 0.00 0.00 0.00 65 1015.1
20260504211257 27 221 1.6 17.7 0.00 0.00 0.00 65 1015.1
20260504211158 27 223 3.2 17.7 0.00 0.00 0.00 64 1015.1
20260504211059 27 171 3.2 17.7 0.00 0.00 0.00 64 1015.1
20260504210957 27 78 3.2 17.7 0.00 0.00 0.00 63 1015.1
20260504210858 27 268 3.2 17.7 0.00 0.00 0.00 64 1015.1
20260504210758 27 252 4.8 17.7 0.00 0.00 0.00 65 1015.0
20260504210658 27 164 4.8 17.7 0.00 0.00 0.00 64 1015.1
20260504210558 27 58 3.2 6.4 0.00 0.00 0.00 65 1014.9
20260504210459 27 56 1.6 6.4 0.00 0.00 0.00 65 1015.0
20260504210400 26 27 1.6 6.4 0.00 0.00 0.00 66 1015.0
20260504210257 26 27 3.2 8.0 0.00 0.00 0.00 65 1015.0
20260504210159 26 131 1.6 8.0 0.00 0.00 0.00 66 1015.0
20260504210058 26 131 1.6 8.0 0.00 0.00 0.00 66 1015.1
20260504205959 26 131 1.6 8.0 0.00 0.00 0.00 66 1015.1
20260504205859 26 120 1.6 8.0 0.00 0.00 0.00 66 1015.1
20260504205758 26 120 1.6 8.0 0.00 0.00 0.00 66 1015.3
20260504205658 26 120 3.2 8.0 0.00 0.00 0.00 64 1015.2
20260504205557 26 121 3.2 11.3 0.00 0.00 0.00 63 1015.3
20260504205458 27 124 3.2 14.5 0.00 0.00 0.00 63 1015.4
20260504205359 27 125 3.2 14.5 0.00 0.00 0.00 63 1015.4
20260504205259 27 114 3.2 14.5 0.00 0.00 0.00 63 1015.4
20260504205158 27 123 1.6 14.5 0.00 0.00 0.00 65 1015.4
20260504205057 27 123 1.6 14.5 0.00 0.00 0.00 64 1015.3
20260504204958 27 134 1.6 14.5 0.00 0.00 0.00 63 1015.4
20260504204858 27 134 3.2 14.5 0.00 0.00 0.00 64 1015.4
20260504204758 27 127 4.8 14.5 0.00 0.00 0.00 66 1015.3
20260504204658 27 127 6.4 14.5 0.00 0.00 0.00 63 1015.3
20260504204557 27 157 4.8 14.5 0.00 0.00 0.00 63 1015.3
20260504204457 27 261 4.8 11.3 0.00 0.00 0.00 64 1015.3
20260504204356 27 272 3.2 11.3 0.00 0.00 0.00 64 1015.4
20260504204259 27 172 3.2 9.7 0.00 0.00 0.00 64 1015.4
20260504204157 27 172 3.2 9.7 0.00 0.00 0.00 65 1015.4
20260504204056 27 314 1.6 9.7 0.00 0.00 0.00 64 1015.4
20260504203958 27 314 1.6 9.7 0.00 0.00 0.00 63 1015.3
20260504203856 27 314 1.6 9.7 0.00 0.00 0.00 63 1015.3
20260504203757 27 307 3.2 9.7 0.00 0.00 0.00 64 1015.4
20260504203657 27 306 4.8 9.7 0.00 0.00 0.00 63 1015.3
20260504203558 27 331 3.2 9.7 0.00 0.00 0.00 63 1015.3
20260504203457 27 85 3.2 8.0 0.00 0.00 0.00 65 1015.4
20260504203357 27 86 3.2 8.0 0.00 0.00 0.00 64 1015.5
20260504203256 27 278 3.2 8.0 0.00 0.00 0.00 65 1015.4
20260504203156 27 0 3.2 6.4 0.00 0.00 0.00 64 1015.6
20260504203056 27 100 3.2 6.4 0.00 0.00 0.00 65 1015.6
20260504202956 27 100 3.2 6.4 0.00 0.00 0.00 64 1015.5
20260504202857 27 86 1.6 6.4 0.00 0.00 0.00 66 1015.6
20260504202758 27 110 1.6 6.4 0.00 0.00 0.00 64 1015.6
20260504202656 27 110 1.6 6.4 0.00 0.00 0.00 62 1015.6
20260504202557 27 104 1.6 6.4 0.00 0.00 0.00 64 1015.6
20260504202456 27 179 1.6 6.4 0.00 0.00 0.00 62 1015.6
20260504202357 27 262 1.6 6.4 0.00 0.00 0.00 62 1015.6
20260504202256 27 262 3.2 8.0 0.00 0.00 0.00 65 1015.5
20260504202158 27 154 3.2 8.0 0.00 0.00 0.00 65 1015.6
20260504202056 27 154 3.2 8.0 0.00 0.00 0.00 64 1015.6
20260504201957 27 121 3.2 8.0 0.00 0.00 0.00 62 1015.6
20260504201859 27 161 3.2 8.0 0.00 0.00 0.00 63 1015.7
20260504201758 27 127 3.2 8.0 0.00 0.00 0.00 63 1015.7
20260504201657 27 109 3.2 8.0 0.00 0.00 0.00 62 1015.7
20260504201557 27 186 3.2 8.0 0.00 0.00 0.00 62 1015.7
20260504201456 27 118 3.2 8.0 0.00 0.00 0.00 63 1015.8
20260504201356 27 85 3.2 8.0 0.00 0.00 0.00 62 1015.8
20260504201256 27 113 3.2 9.7 0.00 0.00 0.00 65 1015.8
20260504201157 27 133 4.8 9.7 0.00 0.00 0.00 62 1015.8
20260504201056 27 148 3.2 9.7 0.00 0.00 0.00 65 1015.9
20260504200957 27 109 1.6 9.7 0.00 0.00 0.00 61 1015.8
20260504200857 27 111 1.6 9.7 0.00 0.00 0.00 61 1015.9
20260504200757 27 111 1.6 14.5 0.00 0.00 0.00 61 1015.9
20260504200657 27 113 1.6 14.5 0.00 0.00 0.00 63 1015.9
20260504200556 27 134 1.6 14.5 0.00 0.00 0.00 62 1016.0
20260504200457 27 134 3.2 14.5 0.00 0.00 0.00 62 1016.0
20260504200356 27 135 3.2 14.5 0.00 0.00 0.00 65 1016.0
20260504200258 27 262 1.6 14.5 0.00 0.00 0.00 62 1016.1
20260504200158 27 262 1.6 14.5 0.00 0.00 0.00 65 1016.1
20260504200057 27 226 8.0 14.5 0.00 0.00 0.00 61 1016.2
20260504195958 27 299 8.0 14.5 0.00 0.00 0.00 61 1016.2
20260504195857 27 314 4.8 14.5 0.00 0.00 0.00 61 1016.1
20260504195746 27 305 3.2 9.7 0.00 0.00 0.00 61 1016.2
20260504195645 27 226 1.6 9.7 0.00 0.00 0.00 62 1016.2
20260504195544 27 145 3.2 9.7 0.00 0.00 0.00 63 1016.2
20260504195442 27 152 4.8 9.7 0.00 0.00 0.00 61 1016.2
20260504195338 27 185 4.8 9.7 0.00 0.00 0.00 62 1016.2
20260504195235 27 258 4.8 9.7 0.00 0.00 0.00 60 1016.2
20260504195135 27 237 4.8 9.7 0.00 0.00 0.00 60 1016.1
20260504195032 27 338 4.8 8.0 0.00 0.00 0.00 60 1016.1
20260504194931 27 274 3.2 6.4 0.00 0.00 0.00 60 1016.0
20260504194831 27 152 1.6 9.7 0.00 0.00 0.00 61 1016.2
20260504194732 27 213 1.6 9.7 0.00 0.00 0.00 61 1016.1
20260504194632 27 213 3.2 9.7 0.00 0.00 0.00 62 1016.1
20260504194531 27 213 3.2 9.7 0.00 0.00 0.00 61 1016.2
20260504194432 27 171 3.2 9.7 0.00 0.00 0.00 63 1016.2
20260504194331 27 172 1.6 9.7 0.00 0.00 0.00 61 1016.2
20260504194233 27 172 1.6 9.7 0.00 0.00 0.00 61 1016.3
20260504194133 27 171 3.2 9.7 0.00 0.00 0.00 62 1016.2
20260504194032 27 250 4.8 9.7 0.00 0.00 0.00 61 1016.3
20260504193931 27 290 4.8 9.7 0.00 0.00 0.00 61 1016.3
20260504193831 27 327 4.8 8.0 0.00 0.00 0.00 61 1016.4
20260504193734 27 295 4.8 8.0 0.00 0.00 0.00 63 1016.4
20260504193631 27 265 4.8 8.0 0.00 0.00 0.00 61 1016.3
20260504193531 27 195 3.2 8.0 0.00 0.00 0.00 60 1016.3
20260504193433 27 175 1.6 8.0 0.00 0.00 0.00 61 1016.3
20260504193333 27 175 1.6 9.7 0.00 0.00 0.00 61 1016.3
20260504193232 27 175 1.6 9.7 0.00 0.00 0.00 61 1016.4
20260504193109 27 175 3.2 9.7 0.00 0.00 0.00 61 1016.4
20260504193007 27 168 3.2 9.7 0.00 0.00 0.00 60 1016.4
20260504192907 27 255 3.2 9.7 0.00 0.00 0.00 60 1016.5
20260504192806 27 274 3.2 9.7 0.00 0.00 0.00 61 1016.5
20260504192703 27 252 3.2 9.7 0.00 0.00 0.00 61 1016.5
20260504192602 27 28 4.8 9.7 0.00 0.00 0.00 60 1016.5
20260504192504 27 24 4.8 9.7 0.00 0.00 0.00 58 1016.6
20260504192404 27 271 3.2 9.7 0.00 0.00 0.00 60 1016.7
20260504192304 27 113 3.2 9.7 0.00 0.00 0.00 60 1016.7
20260504192202 27 114 3.2 9.7 0.00 0.00 0.00 60 1016.6
20260504192105 27 114 3.2 9.7 0.00 0.00 0.00 60 1016.7
20260504192004 27 103 3.2 9.7 0.00 0.00 0.00 60 1016.6
20260504191903 27 199 3.2 9.7 0.00 0.00 0.00 61 1016.7
20260504191802 27 302 3.2 8.0 0.00 0.00 0.00 61 1016.6
20260504191702 27 235 3.2 8.0 0.00 0.00 0.00 60 1016.7
20260504191603 27 209 1.6 8.0 0.00 0.00 0.00 60 1016.6
20260504191503 27 217 3.2 8.0 0.00 0.00 0.00 60 1016.7
20260504191403 27 140 4.8 8.0 0.00 0.00 0.00 59 1016.8
20260504191303 27 93 3.2 8.0 0.00 0.00 0.00 60 1016.6
20260504191202 27 0 3.2 11.3 0.00 0.00 0.00 61 1016.7
20260504191103 27 38 3.2 11.3 0.00 0.00 0.00 62 1016.6
20260504191002 27 82 3.2 11.3 0.00 0.00 0.00 61 1016.7
20260504190903 27 83 1.6 11.3 0.00 0.00 0.00 61 1016.8
20260504190802 27 86 3.2 11.3 0.00 0.00 0.00 60 1016.7
20260504190703 27 157 4.8 11.3 0.00 0.00 0.00 60 1016.8
20260504190602 27 319 4.8 11.3 0.00 0.00 0.00 60 1016.8
20260504190503 27 275 4.8 11.3 0.00 0.00 0.00 61 1016.8
20260504190404 27 264 8.0 11.3 0.00 0.00 0.00 60 1016.9
20260504190303 27 271 9.7 11.3 0.00 0.00 0.00 60 1016.8
20260504190202 27 282 8.0 11.3 0.00 0.00 0.00 60 1016.7
20260504190004 27 128 3.2 11.3 0.00 0.00 0.00 59 1016.8
20260504185902 27 117 4.8 11.3 0.00 0.00 0.00 63 1016.8
20260504185802 27 104 3.2 11.3 0.00 0.00 0.00 61 1016.8
20260504185704 27 217 1.6 6.4 0.00 0.00 0.00 61 1016.8
20260504185603 27 219 3.2 6.4 0.00 0.00 0.00 64 1016.9
20260504185503 27 189 3.2 6.4 0.00 0.00 0.00 62 1016.8
20260504185403 27 107 1.6 6.4 0.00 0.00 0.00 63 1016.9
20260504185304 27 123 3.2 9.7 0.00 0.00 0.00 62 1016.8
20260504185202 26 354 3.2 9.7 0.00 0.00 0.00 62 1016.8
20260504185101 26 109 3.2 9.7 0.00 0.00 0.00 61 1016.9
20260504185003 26 114 3.2 9.7 0.00 0.00 0.00 62 1016.9
20260504184902 26 63 3.2 9.7 0.00 0.00 0.00 62 1016.9
20260504184802 26 138 1.6 9.7 0.00 0.00 0.00 61 1017.0
20260504184702 26 175 1.6 9.7 0.00 0.00 0.00 60 1016.9
20260504184602 26 175 1.6 9.7 0.00 0.00 0.00 59 1017.0
20260504184503 26 185 3.2 9.7 0.00 0.00 0.00 60 1017.0
20260504184403 26 204 4.8 9.7 0.00 0.00 0.00 61 1017.0
20260504184303 27 4 3.2 9.7 0.00 0.00 0.00 62 1017.0
20260504184202 26 18 3.2 9.7 0.00 0.00 0.00 62 1017.1
20260504184102 26 111 3.2 9.7 0.00 0.00 0.00 62 1017.0
20260504184005 26 85 3.2 9.7 0.00 0.00 0.00 61 1017.1
20260504183903 26 130 1.6 9.7 0.00 0.00 0.00 61 1017.0
20260504183802 26 130 3.2 9.7 0.00 0.00 0.00 62 1017.0
20260504183703 26 49 4.8 9.7 0.00 0.00 0.00 60 1017.0
20260504183602 26 48 4.8 9.7 0.00 0.00 0.00 60 1016.9
20260504183503 26 127 4.8 9.7 0.00 0.00 0.00 58 1017.0
20260504183403 26 151 3.2 9.7 0.00 0.00 0.00 58 1017.0
20260504183303 26 178 3.2 8.0 0.00 0.00 0.00 58 1016.9
20260504183202 26 230 4.8 8.0 0.00 0.00 0.00 58 1016.9
20260504183102 27 96 4.8 9.7 0.00 0.00 0.00 59 1016.9
20260504183004 27 123 4.8 9.7 0.00 0.00 0.00 60 1016.9
20260504182902 26 155 4.8 9.7 0.00 0.00 0.00 60 1016.9
20260504182802 26 158 3.2 9.7 0.00 0.00 0.00 60 1016.8
20260504182703 26 154 3.2 11.3 0.00 0.00 0.00 58 1016.8
20260504182604 26 131 4.8 11.3 0.00 0.00 0.00 58 1016.8
20260504182503 26 345 4.8 11.3 0.00 0.00 0.00 59 1016.8
20260504182402 26 247 3.2 11.3 0.00 0.00 0.00 58 1016.9
20260504182304 26 288 3.2 11.3 0.00 0.00 0.00 58 1017.0
20260504182203 26 61 4.8 11.3 0.00 0.00 0.00 61 1017.1
20260504182102 26 23 3.2 11.3 0.00 0.00 0.00 61 1017.1
20260504182003 26 16 3.2 11.3 0.00 0.00 0.00 61 1017.1
20260504181903 26 6 4.8 11.3 0.00 0.00 0.00 61 1017.1
20260504181802 26 159 4.8 11.3 0.00 0.00 0.00 62 1017.2
20260504181702 26 182 3.2 16.1 0.00 0.00 0.00 62 1017.2
20260504181602 26 107 4.8 16.1 0.00 0.00 0.00 61 1017.1
20260504181503 26 104 4.8 16.1 0.00 0.00 0.00 59 1017.2
20260504181402 27 104 3.2 16.1 0.00 0.00 0.00 61 1017.4
20260504181304 27 107 3.2 16.1 0.00 0.00 0.00 62 1017.3
20260504181203 27 55 4.8 16.1 0.00 0.00 0.00 62 1017.3
20260504181104 27 157 4.8 16.1 0.00 0.00 0.00 61 1017.4
20260504181002 27 286 4.8 16.1 0.00 0.00 0.00 61 1017.3
20260504180902 26 300 4.8 16.1 0.00 0.00 0.00 61 1017.3
20260504180802 26 0 3.2 16.1 0.00 0.00 0.00 63 1017.3
20260504180705 26 128 1.6 11.3 0.00 0.00 0.00 63 1017.3
20260504180602 26 133 3.2 11.3 0.00 0.00 0.00 62 1017.3
20260504180505 26 147 3.2 11.3 0.00 0.00 0.00 61 1017.3
20260504180402 26 312 3.2 11.3 0.00 0.00 0.00 61 1017.5
20260504180303 26 312 4.8 11.3 0.00 0.00 0.00 60 1017.5
20260504180203 26 224 4.8 11.3 0.00 0.00 0.00 63 1017.5
20260504180103 26 92 3.2 8.0 0.00 0.00 0.00 63 1017.5
20260504180003 26 154 3.2 8.0 0.00 0.00 0.00 61 1017.6
20260504175902 26 86 3.2 8.0 0.00 0.00 0.00 61 1017.5
20260504175802 26 228 3.2 14.5 0.00 0.00 0.00 61 1017.5
20260504175703 26 321 3.2 14.5 0.00 0.00 0.00 61 1017.5
20260504175603 26 213 4.8 14.5 0.00 0.00 0.00 62 1017.4
20260504175505 26 213 4.8 14.5 0.00 0.00 0.00 62 1017.5
20260504175404 26 213 4.8 14.5 0.00 0.00 0.00 62 1017.4
20260504175304 26 144 3.2 14.5 0.00 0.00 0.00 61 1017.5
20260504175203 26 252 3.2 14.5 0.00 0.00 0.00 62 1017.5
20260504175102 26 351 4.8 14.5 0.00 0.00 0.00 63 1017.5
20260504175003 26 288 6.4 14.5 0.00 0.00 0.00 62 1017.4
20260504174903 26 296 6.4 14.5 0.00 0.00 0.00 64 1017.5
20260504174803 26 162 4.8 9.7 0.00 0.00 0.00 62 1017.5
20260504174702 26 196 3.2 9.7 0.00 0.00 0.00 64 1017.6
20260504174602 26 120 4.8 9.7 0.00 0.00 0.00 64 1017.5
20260504174504 26 137 3.2 9.7 0.00 0.00 0.00 65 1017.7
20260504174403 26 103 3.2 6.4 0.00 0.00 0.00 63 1017.8
20260504174302 26 34 3.2 6.4 0.00 0.00 0.00 63 1017.7
20260504174203 26 116 4.8 9.7 0.00 0.00 0.00 64 1017.7
20260504174103 26 99 3.2 9.7 0.00 0.00 0.00 64 1017.8
20260504174001 26 148 3.2 9.7 0.00 0.00 0.00 65 1017.8
20260504173857 26 159 3.2 14.5 0.00 0.00 0.00 65 1017.8
20260504173758 25 8 3.2 14.5 0.00 0.00 0.00 64 1017.8
20260504173655 25 85 3.2 14.5 0.00 0.00 0.00 65 1017.7
20260504173555 25 90 3.2 14.5 0.00 0.00 0.00 64 1017.8
20260504173453 25 140 3.2 14.5 0.00 0.00 0.00 64 1017.8
20260504173353 26 173 4.8 14.5 0.00 0.00 0.00 62 1017.7
20260504173252 26 209 4.8 14.5 0.00 0.00 0.00 62 1017.7
20260504173153 26 306 4.8 14.5 0.00 0.00 0.00 63 1017.8
20260504173052 26 257 6.4 14.5 0.00 0.00 0.00 65 1017.8
20260504172952 26 272 4.8 14.5 0.00 0.00 0.00 63 1017.9
20260504172853 26 334 3.2 9.7 0.00 0.00 0.00 62 1017.9
20260504172754 26 96 3.2 9.7 0.00 0.00 0.00 62 1017.9
20260504172653 26 27 4.8 9.7 0.00 0.00 0.00 62 1018.0
20260504172552 26 203 4.8 9.7 0.00 0.00 0.00 64 1017.9
20260504172454 26 168 1.6 8.0 0.00 0.00 0.00 64 1017.9
20260504172352 26 168 3.2 8.0 0.00 0.00 0.00 64 1017.9
20260504172253 26 171 3.2 8.0 0.00 0.00 0.00 63 1018.0
20260504172153 26 268 3.2 8.0 0.00 0.00 0.00 64 1017.9
20260504172052 25 130 3.2 8.0 0.00 0.00 0.00 64 1018.0
20260504171953 25 197 3.2 8.0 0.00 0.00 0.00 62 1018.1
20260504171853 25 324 3.2 8.0 0.00 0.00 0.00 62 1018.1
20260504171754 25 331 3.2 8.0 0.00 0.00 0.00 63 1018.1
20260504171653 25 34 3.2 8.0 0.00 0.00 0.00 63 1018.0
20260504171552 25 358 3.2 8.0 0.00 0.00 0.00 62 1018.0
20260504171454 26 123 3.2 9.7 0.00 0.00 0.00 62 1018.0
20260504171353 26 185 1.6 9.7 0.00 0.00 0.00 62 1018.1
20260504171252 26 305 3.2 9.7 0.00 0.00 0.00 62 1018.1
20260504171154 26 303 4.8 9.7 0.00 0.00 0.00 62 1018.1
20260504171055 26 293 4.8 9.7 0.00 0.00 0.00 63 1018.1
20260504170952 26 252 3.2 11.3 0.00 0.00 0.00 63 1018.1
20260504170852 26 32 3.2 11.3 0.00 0.00 0.00 62 1018.2
20260504170753 26 32 3.2 11.3 0.00 0.00 0.00 62 1018.1
20260504170652 26 45 3.2 11.3 0.00 0.00 0.00 61 1018.1
20260504170553 26 0 3.2 11.3 0.00 0.00 0.00 63 1018.1
20260504170453 26 118 3.2 11.3 0.00 0.00 0.00 62 1018.1
20260504170352 25 92 4.8 11.3 0.00 0.00 0.00 62 1018.1
20260504170252 26 293 4.8 11.3 0.00 0.00 0.00 63 1018.2
20260504170152 26 140 4.8 11.3 0.00 0.00 0.00 62 1018.2
20260504160358 24 6 4.8 11.3 0.00 0.00 0.00 68 1019.0
20260504160257 24 69 3.2 11.3 0.00 0.00 0.00 68 1018.9
20260504160154 24 351 3.2 11.3 0.00 0.00 0.00 67 1019.0
20260504151148 23 21 3.2 14.5 0.00 0.00 0.00 69 1019.3
20260504151048 23 100 3.2 14.5 0.00 0.00 0.00 68 1019.2
20260504150946 23 8 4.8 14.5 0.00 0.00 0.00 69 1019.2
20260504150849 23 293 4.8 14.5 0.00 0.00 0.00 68 1019.2
20260504150748 23 99 3.2 14.5 0.00 0.00 0.00 69 1019.1
20260504150648 23 118 4.8 14.5 0.00 0.00 0.00 68 1019.2
20260504150547 23 125 6.4 14.5 0.00 0.00 0.00 68 1019.1
20260504150449 23 0 4.8 9.7 0.00 0.00 0.00 68 1019.2
20260504150348 23 27 3.2 9.7 0.00 0.00 0.00 71 1019.2
20260504150247 23 4 3.2 9.7 0.00 0.00 0.00 68 1019.2
20260504150149 23 197 3.2 9.7 0.00 0.00 0.00 68 1019.1
20260504141249 21 130 4.8 11.3 0.00 0.00 0.00 72 1019.0
20260504141146 21 130 3.2 11.3 0.00 0.00 0.00 72 1019.1
20260504141046 21 107 1.6 6.4 0.00 0.00 0.00 73 1019.1
20260504140947 21 196 1.6 6.4 0.00 0.00 0.00 74 1019.1
20260504140846 21 196 1.6 6.4 0.00 0.00 0.00 72 1019.1
20260504140748 21 138 1.6 6.4 0.00 0.00 0.00 74 1019.0
20260504140646 21 140 1.6 6.4 0.00 0.00 0.00 73 1019.2
20260504140548 21 104 3.2 6.4 0.00 0.00 0.00 74 1019.2
20260504140446 21 345 3.2 6.4 0.00 0.00 0.00 72 1019.2
20260504140346 21 87 1.6 4.8 0.00 0.00 0.00 73 1019.3